| time (UTC) | temp F | wind direction | speed knots | gust knots | rain 1hr in | rain 24hr in | rain mn in | humidity % | barometer mb |
| 20260506165003 | 63 | 329 | 2.6 | 5.2 | 0.00 | 0.05 | 0.05 | 78 | 1008.9 |
| 20260506164004 | 64 | 347 | 1.7 | 2.6 | 0.00 | 0.05 | 0.05 | 76 | 1008.7 |
| 20260506163003 | 64 | 360 | 1.7 | 3.5 | 0.00 | 0.05 | 0.05 | 72 | 1008.7 |
| 20260506162003 | 65 | 18 | 2.6 | 3.5 | 0.00 | 0.05 | 0.05 | 71 | 1008.1 |
| 20260506161003 | 65 | 37 | 1.7 | 5.2 | 0.00 | 0.05 | 0.05 | 69 | 1008.3 |
| 20260506160003 | 64 | 52 | 2.6 | 6.1 | 0.00 | 0.05 | 0.05 | 72 | 1008.5 |
| 20260506155003 | 64 | 45 | 1.7 | 5.2 | 0.00 | 0.05 | 0.05 | 78 | 1008.9 |
| 20260506154003 | 64 | 95 | 2.6 | 5.2 | 0.00 | 0.05 | 0.05 | 73 | 1008.8 |
| 20260506153003 | 64 | 141 | 1.7 | 5.2 | 0.00 | 0.05 | 0.05 | 74 | 1009.6 |
| 20260506152003 | 65 | 72 | 1.7 | 3.5 | 0.00 | 0.05 | 0.05 | 73 | 1009.1 |
| 20260506151003 | 65 | 54 | 1.7 | 3.5 | 0.02 | 0.05 | 0.05 | 71 | 1009.0 |
| 20260506150003 | 67 | 341 | 0.9 | 1.7 | 0.05 | 0.05 | 0.05 | 68 | 1009.3 |
| 20260506145003 | 65 | 335 | 1.7 | 3.5 | 0.05 | 0.05 | 0.05 | 71 | 1009.3 |
| 20260506144003 | 64 | 304 | 2.6 | 2.6 | 0.05 | 0.05 | 0.05 | 74 | 1009.4 |
| 20260506143003 | 61 | 296 | 2.6 | 3.5 | 0.05 | 0.05 | 0.05 | 79 | 1009.9 |
| 20260506142003 | 63 | 331 | 0.9 | 3.5 | 0.05 | 0.05 | 0.05 | 76 | 1010.0 |
| 20260506141003 | 64 | 62 | 0.9 | 3.5 | 0.03 | 0.03 | 0.03 | 75 | 1010.0 |
| 20260506140003 | 69 | 52 | 1.7 | 3.5 | 0.00 | 0.00 | 0.00 | 55 | 1009.6 |
| 20260506135003 | 70 | 29 | 1.7 | 5.2 | 0.00 | 0.00 | 0.00 | 54 | 1009.4 |
| 20260506134003 | 70 | 6 | 1.7 | 3.5 | 0.00 | 0.00 | 0.00 | 52 | 1009.3 |
| 20260506133003 | 70 | 43 | 1.7 | 5.2 | 0.00 | 0.00 | 0.00 | 52 | 1009.3 |
| 20260506132003 | 71 | 356 | 0.9 | 3.5 | 0.00 | 0.00 | 0.00 | 52 | 1009.5 |
| 20260506131003 | 71 | 347 | 1.7 | 3.5 | 0.00 | 0.00 | 0.00 | 49 | 1009.7 |
| 20260506130003 | 69 | 331 | 0.9 | 3.5 | 0.00 | 0.00 | 0.00 | 54 | 1010.1 |
| 20260506125003 | 69 | 324 | 1.7 | 3.5 | 0.00 | 0.00 | 0.00 | 57 | 1010.1 |
| 20260506124003 | 71 | 352 | 1.7 | 3.5 | 0.00 | 0.00 | 0.00 | 53 | 1009.9 |
| 20260506123003 | 71 | 5 | 1.7 | 3.5 | 0.00 | 0.00 | 0.00 | 49 | 1010.0 |
| 20260506122003 | 71 | 330 | 0.9 | 3.5 | 0.00 | 0.00 | 0.00 | 47 | 1010.2 |
| 20260506121003 | 71 | 300 | 1.7 | 3.5 | 0.00 | 0.00 | 0.00 | 49 | 1010.4 |
| 20260506120003 | 71 | 271 | 1.7 | 2.6 | 0.00 | 0.00 | 0.00 | 47 | 1010.3 |
| 20260506115003 | 72 | 347 | 0.9 | 3.5 | 0.00 | 0.00 | 0.00 | 50 | 1010.0 |
| 20260506114003 | 69 | 314 | 1.7 | 5.2 | 0.00 | 0.00 | 0.00 | 51 | 1010.4 |
| 20260506113003 | 71 | 327 | 1.7 | 5.2 | 0.00 | 0.00 | 0.00 | 50 | 1010.4 |
| 20260506112003 | 69 | 350 | 1.7 | 5.2 | 0.00 | 0.00 | 0.00 | 52 | 1010.5 |
| 20260506111003 | 69 | 15 | 1.7 | 3.5 | 0.00 | 0.00 | 0.00 | 53 | 1010.9 |
| 20260506110003 | 67 | 241 | 2.6 | 3.5 | 0.00 | 0.00 | 0.00 | 54 | 1011.0 |
| 20260506105003 | 70 | 277 | 1.7 | 6.1 | 0.00 | 0.00 | 0.00 | 51 | 1011.1 |
| 20260506104003 | 70 | 248 | 1.7 | 6.1 | 0.00 | 0.00 | 0.00 | 51 | 1011.1 |
| 20260506103003 | 67 | 270 | 3.5 | 7.0 | 0.00 | 0.00 | 0.00 | 55 | 1011.6 |
| 20260506102003 | 67 | 264 | 1.7 | 6.1 | 0.00 | 0.00 | 0.00 | 52 | 1011.5 |
| 20260506101003 | 68 | 245 | 1.7 | 7.0 | 0.00 | 0.00 | 0.00 | 53 | 1011.7 |
| 20260506100003 | 67 | 211 | 2.6 | 6.1 | 0.00 | 0.00 | 0.00 | 53 | 1011.7 |
| 20260506095003 | 67 | 228 | 2.6 | 6.1 | 0.00 | 0.00 | 0.00 | 56 | 1011.7 |
| 20260506094003 | 66 | 263 | 1.7 | 6.1 | 0.00 | 0.00 | 0.00 | 59 | 1011.9 |
| 20260506093003 | 65 | 276 | 3.5 | 7.0 | 0.00 | 0.00 | 0.00 | 59 | 1012.0 |
| 20260506092003 | 65 | 276 | 3.5 | 7.8 | 0.00 | 0.00 | 0.00 | 61 | 1011.9 |
| 20260506091003 | 65 | 247 | 2.6 | 5.2 | 0.00 | 0.00 | 0.00 | 62 | 1012.1 |
| 20260506090003 | 63 | 292 | 4.3 | 7.0 | 0.00 | 0.00 | 0.00 | 63 | 1012.2 |
| 20260506085003 | 64 | 273 | 3.5 | 7.8 | 0.00 | 0.00 | 0.00 | 63 | 1012.0 |
| 20260506084006 | 63 | 248 | 3.5 | 7.0 | 0.00 | 0.00 | 0.00 | 62 | 1012.1 |
| 20260506083003 | 63 | 244 | 4.3 | 7.8 | 0.00 | 0.00 | 0.00 | 61 | 1012.4 |
| 20260506082003 | 63 | 247 | 4.3 | 7.8 | 0.00 | 0.00 | 0.00 | 63 | 1011.9 |
| 20260506081003 | 62 | 251 | 5.2 | 8.7 | 0.00 | 0.00 | 0.00 | 63 | 1012.2 |
| 20260506073003 | 62 | 261 | 5.2 | 11.3 | 0.00 | 0.00 | 0.00 | 66 | 1012.5 |
| 20260506072003 | 62 | 274 | 4.3 | 9.6 | 0.00 | 0.00 | 0.00 | 67 | 1012.6 |
| 20260506071003 | 62 | 277 | 6.1 | 11.3 | 0.00 | 0.00 | 0.00 | 68 | 1012.4 |
| 20260506062003 | 61 | 277 | 3.5 | 7.8 | 0.00 | 0.00 | 0.00 | 69 | 1012.2 |
| 20260506061003 | 60 | 258 | 1.7 | 5.2 | 0.00 | 0.00 | 0.00 | 72 | 1012.2 |
| 20260506051003 | 58 | 206 | 1.7 | 3.5 | 0.00 | 0.00 | 0.00 | 80 | 1012.4 |
| 20260506045003 | 57 | 154 | 0.0 | 1.7 | 0.00 | 0.00 | 0.00 | 82 | 1012.4 |
| 20260506044003 | 57 | 133 | 0.0 | 0.9 | 0.00 | 0.00 | 0.00 | 83 | 1012.3 |
| 20260506043003 | 55 | 133 | 0.0 | 0.9 | 0.00 | 0.00 | 0.00 | 88 | 1012.2 |
| 20260506042003 | 54 | 133 | 0.0 | 0.9 | 0.00 | 0.00 | 0.00 | 91 | 1012.6 |
| 20260506040003 | 54 | 0 | 0.0 | 0.0 | 0.00 | 0.00 | 0.00 | 93 | 1012.2 |
| 20260506035003 | 53 | 132 | 0.0 | 1.7 | 0.00 | 0.00 | 0.00 | 94 | 1012.0 |
| 20260506034003 | 54 | 130 | 0.9 | 1.7 | 0.00 | 0.00 | 0.00 | 94 | 1011.6 |
| 20260506033004 | 54 | 0 | 0.0 | 0.0 | 0.00 | 0.00 | 0.00 | 93 | 1011.9 |
| 20260506032003 | 54 | 0 | 0.0 | 0.0 | 0.00 | 0.00 | 0.00 | 93 | 1011.9 |
| 20260506031003 | 54 | 121 | 0.0 | 0.9 | 0.00 | 0.00 | 0.00 | 93 | 1011.8 |
| 20260506030003 | 55 | 125 | 0.9 | 0.9 | 0.00 | 0.00 | 0.00 | 93 | 1011.8 |
| 20260506025006 | 55 | 126 | 0.0 | 0.9 | 0.00 | 0.00 | 0.00 | 92 | 1012.2 |
| 20260506024003 | 56 | 127 | 0.0 | 1.7 | 0.00 | 0.00 | 0.00 | 92 | 1011.8 |
| 20260506023003 | 56 | 133 | 0.0 | 1.7 | 0.00 | 0.00 | 0.00 | 91 | 1012.0 |
| 20260506022003 | 56 | 129 | 0.0 | 1.7 | 0.00 | 0.00 | 0.00 | 91 | 1011.8 |
| 20260506021003 | 56 | 0 | 0.0 | 0.0 | 0.00 | 0.00 | 0.00 | 91 | 1011.9 |
| 20260506020003 | 56 | 137 | 0.0 | 0.9 | 0.00 | 0.00 | 0.00 | 91 | 1011.7 |
| 20260506015003 | 56 | 106 | 0.0 | 0.9 | 0.00 | 0.00 | 0.00 | 91 | 1012.0 |
| 20260506014003 | 56 | 0 | 0.0 | 0.0 | 0.00 | 0.00 | 0.00 | 91 | 1011.7 |
| 20260506013003 | 56 | 77 | 0.9 | 2.6 | 0.00 | 0.00 | 0.00 | 91 | 1011.5 |
| 20260506012003 | 56 | 51 | 0.0 | 2.6 | 0.00 | 0.00 | 0.00 | 91 | 1011.7 |
| 20260506011003 | 56 | 27 | 0.9 | 1.7 | 0.00 | 0.00 | 0.00 | 90 | 1011.6 |
| 20260506010003 | 56 | 21 | 0.0 | 1.7 | 0.00 | 0.00 | 0.00 | 90 | 1011.8 |
| 20260506005003 | 56 | 358 | 0.0 | 1.7 | 0.00 | 0.00 | 0.00 | 90 | 1011.4 |
| 20260506004003 | 56 | 340 | 0.9 | 2.6 | 0.00 | 0.00 | 0.00 | 90 | 1011.8 |
| 20260506003003 | 57 | 333 | 1.7 | 3.5 | 0.00 | 0.00 | 0.00 | 89 | 1011.7 |
| 20260506002003 | 57 | 338 | 0.9 | 2.6 | 0.00 | 0.00 | 0.00 | 89 | 1011.4 |
| 20260506001003 | 58 | 316 | 2.6 | 6.1 | 0.00 | 0.00 | 0.00 | 89 | 1011.6 |
| 20260506000003 | 58 | 311 | 4.3 | 7.8 | 0.00 | 0.00 | 0.00 | 88 | 1011.6 |
| 20260505235003 | 58 | 331 | 3.5 | 7.0 | 0.00 | 0.00 | 0.00 | 87 | 1011.4 |
| 20260505234003 | 58 | 326 | 2.6 | 6.1 | 0.00 | 0.00 | 0.00 | 86 | 1011.4 |
| 20260505233003 | 59 | 315 | 3.5 | 7.8 | 0.00 | 0.00 | 0.00 | 85 | 1011.2 |
| 20260505232003 | 59 | 310 | 6.1 | 12.2 | 0.00 | 0.00 | 0.00 | 84 | 1011.0 |
| 20260505231003 | 60 | 313 | 7.8 | 13.9 | 0.00 | 0.00 | 0.00 | 83 | 1011.7 |
| 20260505230003 | 60 | 299 | 7.0 | 13.0 | 0.00 | 0.00 | 0.00 | 81 | 1011.6 |
| 20260505225003 | 61 | 289 | 5.2 | 13.0 | 0.00 | 0.00 | 0.00 | 79 | 1011.1 |
| 20260505224003 | 62 | 289 | 6.1 | 15.6 | 0.00 | 0.00 | 0.00 | 76 | 1011.0 |
| 20260505223003 | 63 | 184 | 0.9 | 2.6 | 0.00 | 0.00 | 0.00 | 62 | 1010.3 |
| 20260505222003 | 64 | 187 | 1.7 | 5.2 | 0.00 | 0.00 | 0.00 | 61 | 1010.1 |
| 20260505221004 | 64 | 233 | 1.7 | 6.1 | 0.00 | 0.00 | 0.00 | 61 | 1010.1 |
| 20260505220011 | 64 | 234 | 2.6 | 5.2 | 0.00 | 0.00 | 0.00 | 62 | 1009.7 |
| 20260505215003 | 64 | 241 | 4.3 | 9.6 | 0.00 | 0.00 | 0.00 | 63 | 1010.3 |
| 20260505214011 | 64 | 110 | 1.7 | 6.1 | 0.00 | 0.00 | 0.00 | 60 | 1009.0 |
| 20260505213003 | 64 | 99 | 1.7 | 5.2 | 0.00 | 0.00 | 0.00 | 61 | 1009.0 |
| 20260505212003 | 64 | 108 | 0.9 | 5.2 | 0.00 | 0.00 | 0.00 | 63 | 1008.9 |
| 20260505211003 | 64 | 107 | 1.7 | 6.1 | 0.00 | 0.00 | 0.00 | 63 | 1008.9 |
| 20260505210003 | 62 | 130 | 0.9 | 1.7 | 0.00 | 0.00 | 0.00 | 69 | 1008.9 |
| 20260505205003 | 61 | 0 | 0.0 | 0.0 | 0.00 | 0.00 | 0.00 | 76 | 1009.3 |
| 20260505204003 | 62 | 77 | 0.9 | 2.6 | 0.00 | 0.00 | 0.00 | 76 | 1009.4 |
| 20260505203003 | 61 | 77 | 0.9 | 2.6 | 0.00 | 0.00 | 0.00 | 77 | 1009.3 |
| 20260505202003 | 61 | 0 | 0.0 | 0.0 | 0.00 | 0.00 | 0.00 | 78 | 1009.3 |
| 20260505201003 | 61 | 83 | 0.0 | 0.9 | 0.00 | 0.00 | 0.00 | 78 | 1009.0 |
| 20260505200003 | 62 | 95 | 0.9 | 1.7 | 0.00 | 0.00 | 0.00 | 77 | 1009.0 |
| 20260505195003 | 62 | 120 | 0.9 | 1.7 | 0.00 | 0.00 | 0.00 | 77 | 1009.0 |
| 20260505194003 | 62 | 125 | 1.7 | 3.5 | 0.00 | 0.00 | 0.00 | 77 | 1009.1 |
| 20260505193003 | 62 | 133 | 2.6 | 6.1 | 0.00 | 0.00 | 0.00 | 78 | 1009.2 |
| 20260505192003 | 62 | 137 | 2.6 | 3.5 | 0.00 | 0.00 | 0.00 | 78 | 1009.0 |
| 20260505191003 | 62 | 131 | 1.7 | 2.6 | 0.00 | 0.00 | 0.00 | 76 | 1009.0 |
| 20260505190003 | 62 | 133 | 0.9 | 2.6 | 0.00 | 0.00 | 0.00 | 76 | 1009.1 |
| 20260505185003 | 63 | 0 | 0.0 | 0.0 | 0.00 | 0.00 | 0.00 | 76 | 1008.9 |
| 20260505184003 | 63 | 0 | 0.0 | 0.0 | 0.00 | 0.00 | 0.00 | 76 | 1008.9 |
| 20260505183003 | 63 | 0 | 0.0 | 0.0 | 0.00 | 0.00 | 0.00 | 76 | 1009.0 |
| 20260505182003 | 63 | 0 | 0.0 | 0.0 | 0.00 | 0.00 | 0.00 | 75 | 1009.2 |
| 20260505181003 | 63 | 320 | 0.0 | 1.7 | 0.00 | 0.00 | 0.00 | 75 | 1009.1 |
| 20260505180003 | 63 | 317 | 2.6 | 3.5 | 0.00 | 0.00 | 0.00 | 74 | 1009.4 |
| 20260505175003 | 64 | 315 | 2.6 | 5.2 | 0.00 | 0.00 | 0.00 | 72 | 1009.5 |
| 20260505174003 | 65 | 314 | 3.5 | 7.8 | 0.00 | 0.00 | 0.00 | 69 | 1009.3 |
| 20260505173003 | 65 | 317 | 2.6 | 6.1 | 0.00 | 0.00 | 0.00 | 68 | 1009.5 |
| 20260505172003 | 65 | 311 | 5.2 | 9.6 | 0.00 | 0.00 | 0.00 | 69 | 1009.4 |
| 20260505171003 | 66 | 308 | 5.2 | 12.2 | 0.00 | 0.00 | 0.00 | 65 | 1009.3 |
| 20260505170003 | 67 | 296 | 6.1 | 9.6 | 0.00 | 0.00 | 0.00 | 63 | 1009.3 |